Location: Prescott
(34.5400°N, 112.4680°W)
Time: 09:34:06
(UTC-07:00)

Amateur Radio Satellites - All Passes

Search period start: 28 May 2017 09:04
Search period end: 29 May 2017 09:04
Location: Prescott, 34.5400°N, 112.4680°W

Satellite Date Start Highest point End Downlink Frequencies (MHz)
Time Altitude Azimuth
CUBEBUG 2 28 May 09:04:06 09:08:15 34° 288° (WNW) 09:12:29 437.445
UWE-3 28 May 09:10:09 09:14:36 47° 286° (WNW) 09:19:04 435.000/436.395/437.385
HO-68 28 May 09:19:19 09:25:15 29° 296° (WNW) 09:31:12 435.675
EO-88 28 May 09:23:27 09:25:15 13° 94° (E) 09:27:01 145.990 - 145.960
RS-15 28 May 09:28:22 09:39:03 33° 43° (NE) 09:49:15 29.354- 29.394
Oscar 11 28 May 09:34:54 09:39:13 62° 284° (WNW) 09:43:29 .
SRMSAT 28 May 09:39:41 09:41:04 11° 196° (SSW) 09:42:26 437.500
TIGRISAT 28 May 09:42:40 09:46:52 66° 76° (ENE) 09:51:11 435.000
PRISM 28 May 09:46:26 09:50:34 72° 259° (W) 09:54:41 437.425
DELFI C3 28 May 09:47:16 09:51:01 42° 99° (E) 09:54:44 145.870
AAUSAT CUBESAT 2 28 May 09:47:23 09:49:48 15° 292° (WNW) 09:52:12 437.432
AO-73 28 May 10:04:33 10:08:10 24° 290° (WNW) 10:11:49 145.935
UNISAT 6 28 May 10:15:12 10:19:16 44° 261° (W) 10:23:25 437.425
FO-29 28 May 10:16:42 10:21:45 53° 260° (W) 10:26:54 435.910
ZACube-1 28 May 10:20:38 10:23:14 15° 293° (WNW) 10:25:49 437.345
AIST 2D 28 May 10:20:42 10:23:07 18° 71° (ENE) 10:25:31 435.315
EO-79 28 May 10:22:39 10:23:27 10° 65° (ENE) 10:24:14 145.935-145.965
EO-88 28 May 10:55:43 10:58:57 30° 287° (WNW) 11:02:11 145.990 - 145.960
YUBILEINY 28 May 11:02:56 11:10:22 29° 73° (ENE) 11:17:45 435.215
NANOSAT C BR1 28 May 11:03:25 11:07:03 30° 71° (ENE) 11:10:42 145.865
POLYITAN 1 28 May 11:09:36 11:13:30 39° 73° (ENE) 11:17:26 437.675
DUCHIFAT 1 28 May 11:12:51 11:16:37 34° 72° (ENE) 11:20:24 145.980
QB50P2 28 May 11:18:10 11:22:15 56° 75° (ENE) 11:26:24 145.880/145.840
DELFI C3 28 May 11:24:07 11:25:21 11° 293° (WNW) 11:26:35 145.870
BUGSAT 1 28 May 11:25:00 11:26:47 13° 67° (ENE) 11:28:33 437.445
LO-87 28 May 11:31:48 11:35:21 83° 101° (ESE) 11:38:56 145.935 - 145.965
RS-15 28 May 11:40:36 11:52:38 74° 246° (WSW) 12:04:01 29.354- 29.394
ESTCUBE 1 28 May 11:44:20 11:48:46 56° 100° (E) 11:53:09 437.505/2401.250
AIST 2D 28 May 11:53:28 11:56:08 20° 264° (W) 11:58:51 435.315
EO-79 28 May 11:54:36 11:58:41 54° 260° (W) 12:02:48 145.935-145.965
SPROUT 28 May 12:10:11 12:13:44 25° 96° (E) 12:17:16 437.525
Gurwin Techsat 1B 28 May 12:16:28 12:18:50 13° 63° (ENE) 12:21:12 435.225
Oscar 19 28 May 12:20:10 12:24:17 24° 68° (ENE) 12:28:25 437.125/150
AO-85 28 May 12:21:11 12:24:30 23° 54° (NE) 12:27:57 145.980
50 SAT 28 May 12:31:09 12:33:30 17° 96° (E) 12:35:49 437.505
VELOX 1 28 May 12:31:12 12:35:23 43° 100° (E) 12:39:33 145.980
NANOSAT C BR1 28 May 12:39:57 12:42:46 18° 265° (W) 12:45:35 145.865
POLYITAN 1 28 May 12:47:24 12:49:25 13° 267° (W) 12:51:27 437.675
UKube-1 28 May 12:49:24 12:51:45 14° 94° (E) 12:54:05 .
DUCHIFAT 1 28 May 12:49:55 12:52:21 15° 266° (W) 12:54:47 145.980
BUGSAT 1 28 May 12:58:00 13:01:44 39° 261° (W) 13:05:31 437.445
YUBILEINY 28 May 12:58:58 13:07:27 54° 270° (W) 13:15:55 435.215
DX 1 28 May 13:00:11 13:03:59 30° 98° (E) 13:07:47 434.975-435.025
O/OREOS (USA 219) 28 May 13:00:49 13:04:59 36° 66° (ENE) 13:09:05 437.305
AO-7 28 May 13:09:08 13:12:30 13° 51° (NE) 13:15:52 .
ESTCUBE 1 28 May 13:23:24 13:25:01 12° 295° (WNW) 13:26:39 437.505/2401.250
BEESAT 2 28 May 13:35:54 13:38:38 17° 51° (NE) 13:41:20 435.950
SPROUT 28 May 13:46:08 13:49:28 22° 290° (WNW) 13:52:48 437.525
BEESAT 3 28 May 13:50:15 13:54:15 69° 60° (ENE) 13:58:11 437.485
Gurwin Techsat 1B 28 May 13:52:51 13:58:07 69° 258° (WSW) 14:03:25 435.225
RS-15 28 May 13:58:10 14:02:47 13° 264° (W) 14:07:19 29.354- 29.394
Oscar 19 28 May 13:58:41 14:03:22 34° 262° (W) 14:08:05 437.125/150
AO-85 28 May 14:01:20 14:04:48 26° 247° (WSW) 14:08:28 145.980
50 SAT 28 May 14:03:49 14:06:14 18° 289° (WNW) 14:08:38 437.505
VELOX 1 28 May 14:09:06 14:11:25 14° 293° (WNW) 14:13:44 145.980
ITUPSAT 1 28 May 14:16:48 14:18:06 11° 92° (E) 14:19:25 437.325
UKube-1 28 May 14:23:53 14:27:53 39° 288° (WNW) 14:31:52 .
DX 1 28 May 14:36:49 14:39:56 20° 292° (WNW) 14:43:02 434.975-435.025
O/OREOS (USA 219) 28 May 14:41:11 14:44:01 17° 260° (W) 14:46:51 437.305
NO-84 28 May 14:42:02 14:45:10 24° 38° (NE) 14:48:04 435.350 FM
BEESAT 28 May 14:46:29 14:50:28 26° 96° (E) 14:54:25 436.000
AO-7 28 May 14:55:34 15:03:45 70° 69° (ENE) 15:12:00 .
ITAMSAT 1 28 May 15:04:24 15:09:33 78° 75° (ENE) 15:14:44 435.822/435.867
BEESAT 2 28 May 15:12:46 15:16:30 36° 247° (WSW) 15:20:11 435.950
MOZHAYETS 4 28 May 15:45:55 15:50:33 66° 101° (E) 15:55:08
ITUPSAT 1 28 May 15:51:30 15:56:16 62° 286° (WNW) 16:01:00 437.325
NO-84 28 May 16:19:40 16:22:38 25° 236° (WSW) 16:25:25 435.350 FM
DOVE 4 28 May 16:22:18 16:24:17 13° 68° (ENE) 16:26:13 437.250
KKS-1 28 May 16:23:35 16:26:56 21° 96° (E) 16:30:16 437.445
BEESAT 28 May 16:24:06 16:28:08 28° 291° (WNW) 16:32:09 436.000
CUBESAT XI-V 28 May 16:38:07 16:42:29 39° 98° (E) 16:46:46 437.345
STARS 28 May 16:48:34 16:51:16 16° 94° (E) 16:53:58 437.465
AO-7 28 May 16:51:07 16:57:02 21° 265° (W) 17:03:00 .
XW-2D 28 May 17:06:11 17:08:49 18° 70° (ENE) 17:11:30 145.860 - 145.880
XW-2B 28 May 17:13:51 17:16:49 22° 71° (ENE) 17:19:47 145.730 - 145.750
CUTE-I 28 May 17:16:43 17:21:13 29° 69° (ENE) 17:25:43 437.470
NUDT-PHONESAT 28 May 17:16:58 17:19:31 18° 70° (ENE) 17:22:05 437.300
XW-2F 28 May 17:24:22 17:27:39 28° 73° (ENE) 17:30:58 145.980 - 146.000
MOZHAYETS 4 28 May 17:26:02 17:27:04 11° 296° (WNW) 17:28:06
XW-2C 28 May 17:27:05 17:30:31 33° 73° (ENE) 17:33:58 145.795 - 145.815
KAITUO 1B 28 May 17:28:08 17:31:16 26° 72° (ENE) 17:34:26 145.475/437.950
PCSat 28 May 17:33:41 17:38:14 28° 108° (ESE) 17:42:48 145.827
Tancredo 1 28 May 17:48:08 17:50:18 18° 129° (SE) 17:52:27 437.200
HO-68 28 May 17:56:49 18:02:25 25° 63° (ENE) 18:08:02 435.675
DOVE 4 28 May 17:57:06 18:01:36 50° 260° (W) 18:05:52 437.250
KKS-1 28 May 17:59:37 18:03:27 29° 289° (WNW) 18:07:15 437.445
LilacSat-2 28 May 18:07:30 18:11:17 63° 259° (W) 18:15:08 437.200
CUBESAT XI-V 28 May 18:16:31 18:19:29 17° 293° (WNW) 18:22:26 437.345
STARS 28 May 18:23:39 18:27:41 37° 288° (WNW) 18:31:43 437.465
XW-2D 28 May 18:39:43 18:42:49 24° 264° (W) 18:45:58 145.860 - 145.880
ISS 28 May 18:41:29 18:44:38 45° 133° (SE) 18:47:48 437.550
XW-2A 28 May 18:42:47 18:45:36 25° 73° (ENE) 18:48:27 145.665 - 145.685
XW-2B 28 May 18:48:04 18:50:53 20° 265° (W) 18:53:44 145.730 - 145.750
NUDT-PHONESAT 28 May 18:50:14 18:53:14 23° 264° (W) 18:56:15 437.300
CUTE 1.7 + AOD 2 28 May 18:55:05 18:59:14 51° 75° (ENE) 19:03:25 437.475
CUTE-I 28 May 18:56:33 19:01:07 29° 263° (W) 19:05:44 437.470
STRAND 1 28 May 18:57:59 19:01:47 20° 95° (E) 19:05:34 437.568
AAUSAT CUBESAT 2 28 May 18:58:34 19:01:01 15° 68° (ENE) 19:03:28 437.432
XW-2F 28 May 18:59:36 19:01:48 15° 266° (W) 19:04:01 145.980 - 146.000
KAITUO 1B 28 May 19:02:49 19:05:14 16° 266° (W) 19:07:41 145.475/437.950
XW-2C 28 May 19:02:58 19:04:46 13° 267° (W) 19:06:36 145.795 - 145.815
PCSat 28 May 19:16:35 19:21:27 33° 303° (WNW) 19:26:22 145.827
AO-73 28 May 19:21:49 19:23:51 13° 66° (ENE) 19:25:53 145.935
Tancredo 1 28 May 19:23:07 19:25:52 29° 323° (NW) 19:28:38 437.200
ZACube-1 28 May 19:35:55 19:39:09 22° 70° (ENE) 19:42:27 437.345
SEEDS 28 May 19:39:35 19:43:49 72° 260° (W) 19:48:04 437.485
HO-68 28 May 19:42:39 19:49:38 55° 258° (WSW) 19:56:41 435.675
CUBEBUG 2 28 May 19:58:17 20:02:21 59° 259° (W) 20:06:32 437.445
UWE-3 28 May 20:03:15 20:07:25 88° 75° (ENE) 20:11:43 435.000/436.395/437.385
XW-2A 28 May 20:16:57 20:18:22 12° 266° (W) 20:19:46 145.665 - 145.685
ISS 28 May 20:19:00 20:21:17 17° 329° (NNW) 20:23:36 437.550
Oscar 11 28 May 20:25:38 20:29:54 62° 76° (ENE) 20:34:12 .
DELFI C3 28 May 20:30:15 20:32:40 16° 69° (ENE) 20:35:06 145.870
AAUSAT CUBESAT 2 28 May 20:32:17 20:36:08 36° 262° (W) 20:40:00 437.432
CUTE 1.7 + AOD 2 28 May 20:34:23 20:35:19 11° 269° (W) 20:36:14 437.475
STRAND 1 28 May 20:36:16 20:41:02 39° 289° (WNW) 20:45:47 437.568
SO-50 28 May 20:54:09 20:58:24 38° 114° (ESE) 21:02:38 436.795
AO-73 28 May 20:55:37 20:59:37 43° 261° (W) 21:03:45 145.935
ZACube-1 28 May 21:11:47 21:15:16 25° 264° (W) 21:18:50 437.345
M-CUBED/EXP-1 PRIME 28 May 21:20:07 21:23:22 76° 289° (WNW) 21:26:38 437.505
FO-29 28 May 21:27:53 21:33:27 26° 96° (E) 21:39:24 435.910
EO-88 28 May 21:29:15 21:32:50 61° 76° (ENE) 21:36:28 145.990 - 145.960
PRISM 28 May 21:32:03 21:34:57 19° 95° (E) 21:37:50 437.425
TIGRISAT 28 May 21:38:09 21:41:30 19° 95° (E) 21:44:51 435.000
DELFI C3 28 May 22:03:36 22:07:09 31° 262° (W) 22:10:43 145.870
LO-87 28 May 22:05:16 22:07:44 18° 71° (ENE) 22:10:12 145.935 - 145.965
UNISAT 6 28 May 22:09:42 22:14:12 48° 99° (E) 22:18:43 437.425
SO-50 28 May 22:35:31 22:38:58 21° 309° (NW) 22:42:23 436.795
ESTCUBE 1 28 May 22:40:19 22:44:22 33° 72° (ENE) 22:48:27 437.505/2401.250
SPROUT 28 May 23:01:40 23:03:31 13° 67° (ENE) 23:05:24 437.525
PRISM 28 May 23:06:47 23:10:11 26° 289° (WNW) 23:13:33 437.425
QB50P2 28 May 23:08:22 23:10:06 12° 93° (E) 23:11:50 145.880/145.840
FO-29 28 May 23:12:03 23:18:31 52° 288° (WNW) 23:25:41 435.910
TIGRISAT 28 May 23:14:00 23:18:11 35° 288° (WNW) 23:22:25 435.000
AIST 2D 28 May 23:21:08 23:24:24 33° 98° (E) 23:27:38 435.315
VELOX 1 28 May 23:25:15 23:28:52 25° 70° (ENE) 23:32:28 145.980
LO-87 28 May 23:38:21 23:41:01 20° 264° (W) 23:43:41 145.935 - 145.965
EO-79 28 May 23:42:47 23:46:32 29° 97° (E) 23:50:16 145.935-145.965
UNISAT 6 28 May 23:47:54 23:50:28 15° 293° (WNW) 23:53:02 437.425
RS-15 28 May 23:49:09 23:58:00 25° 101° (E) 00:07:00 29.354- 29.394
DX 1 28 May 23:53:03 23:55:55 18° 68° (ENE) 23:58:48 434.975-435.025
YUBILEINY 28 May 23:59:21 00:07:05 37° 86° (E) 00:14:52 435.215
ESTCUBE 1 29 May 00:18:00 00:21:12 19° 265° (W) 00:24:25 437.505/2401.250
NANOSAT C BR1 29 May 00:25:53 00:30:09 88° 276° (W) 00:34:24 145.865
50 SAT 29 May 00:31:21 00:34:48 81° 77° (ENE) 00:38:15 437.505
POLYITAN 1 29 May 00:33:01 00:37:16 64° 284° (WNW) 00:41:30 437.675
SPROUT 29 May 00:34:57 00:38:59 45° 261° (W) 00:43:04 437.525
DUCHIFAT 1 29 May 00:35:07 00:39:22 76° 284° (WNW) 00:43:37 145.980
QB50P2 29 May 00:41:59 00:46:04 45° 286° (WNW) 00:50:08 145.880/145.840
BUGSAT 1 29 May 00:42:45 00:46:34 34° 98° (E) 00:50:24 437.445
AIST 2D 29 May 00:56:03 00:57:15 11° 292° (WNW) 00:58:26 435.315
VELOX 1 29 May 01:01:39 01:05:12 24° 264° (W) 01:08:45 145.980
ISS 29 May 01:12:56 01:14:54 15° 29° (NNE) 01:16:51 437.550
UKube-1 29 May 01:14:08 01:18:26 76° 258° (WSW) 01:22:45 .
EO-79 29 May 01:19:02 01:22:03 19° 291° (WNW) 01:25:04 145.935-145.965
JUGNU 29 May 01:26:38 01:29:33 14° 168° (SSE) 01:32:29 437.505
DX 1 29 May 01:27:52 01:31:49 34° 262° (W) 01:35:45 434.975-435.025
BEESAT 29 May 01:49:54 01:53:23 21° 68° (ENE) 01:56:53 436.000
Tancredo 1 29 May 01:50:23 01:53:21 46° 40° (NE) 01:56:18 437.200
YUBILEINY 29 May 01:55:36 02:03:40 41° 284° (WNW) 02:11:50 435.215
RS-15 29 May 01:57:00 02:09:03 80° 299° (WNW) 02:21:32 29.354- 29.394
Gurwin Techsat 1B 29 May 02:12:36 02:17:53 63° 101° (E) 02:23:08 435.225
Oscar 19 29 May 02:13:13 02:18:22 74° 285° (WNW) 02:23:28 437.125/150
BUGSAT 1 29 May 02:19:04 02:21:37 16° 292° (WNW) 02:24:11 437.445
PCSat 29 May 02:26:14 02:28:33 13° 47° (NE) 02:30:52 145.827
AO-85 29 May 02:33:19 02:36:02 17° 111° (ESE) 02:38:41 145.980
MOZHAYETS 4 29 May 02:44:08 02:48:26 41° 73° (ENE) 02:52:46
ISS 29 May 02:48:25 02:51:39 61° 226° (SW) 02:54:53 437.550
ITUPSAT 1 29 May 02:54:22 02:59:08 81° 256° (WSW) 03:03:57 437.325
AO-7 29 May 03:01:59 03:08:53 28° 97° (E) 03:15:45 .
O/OREOS (USA 219) 29 May 03:08:56 03:13:32 85° 105° (ESE) 03:18:08 437.305
JUGNU 29 May 03:13:48 03:17:50 19° 178° (S) 03:21:54 437.505
KKS-1 29 May 03:19:32 03:21:37 13° 66° (ENE) 03:23:41 437.445
ITAMSAT 1 29 May 03:21:01 03:25:49 36° 98° (E) 03:30:35 435.822/435.867
BEESAT 29 May 03:26:34 03:30:53 34° 262° (W) 03:35:13 436.000
Tancredo 1 29 May 03:27:58 03:28:45 11° 233° (SW) 03:29:32 437.200
BEESAT 3 29 May 03:36:58 03:40:15 26° 112° (ESE) 03:43:34 437.485
CUBESAT XI-V 29 May 03:38:02 03:41:57 27° 70° (ENE) 03:45:52 437.345
Gurwin Techsat 1B 29 May 03:54:30 03:57:14 14° 296° (WNW) 03:59:59 435.225
SRMSAT 29 May 03:59:49 04:02:42 14° 167° (SSE) 04:05:35 437.500
PCSat 29 May 04:07:12 04:12:40 88° 238° (WSW) 04:18:04 145.827
AO-85 29 May 04:12:19 04:16:10 34° 303° (WNW) 04:19:51 145.980
RS-15 29 May 04:14:20 04:23:50 25° 325° (NW) 04:33:29 29.354- 29.394
MOZHAYETS 4 29 May 04:22:56 04:25:43 16° 267° (W) 04:28:30
KKS-1 29 May 04:53:27 04:57:43 48° 260° (W) 05:02:00 437.445
AO-7 29 May 04:53:47 05:01:53 57° 293° (WNW) 05:10:00 .
BEESAT 2 29 May 05:00:01 05:03:58 88° 106° (ESE) 05:07:59 435.950
ITAMSAT 1 29 May 05:00:57 05:05:01 23° 293° (WNW) 05:09:05 435.822/435.867
JUGNU 29 May 05:02:31 05:06:10 17° 188° (S) 05:09:49 437.505
BEESAT 3 29 May 05:14:39 05:17:46 22° 307° (NW) 05:20:55 437.485
CUBESAT XI-V 29 May 05:15:19 05:19:12 25° 264° (W) 05:23:06 437.345
STARS 29 May 05:16:05 05:20:24 66° 258° (WSW) 05:24:44 437.465
SO-50 29 May 05:29:39 05:32:15 15° 48° (NE) 05:34:51 436.795
CUTE-I 29 May 05:38:12 05:41:11 15° 93° (E) 05:44:10 437.470
LilacSat-2 29 May 05:45:05 05:47:42 17° 95° (E) 05:50:18 437.200
SRMSAT 29 May 05:47:03 05:51:10 19° 177° (S) 05:55:16 437.500
NO-84 29 May 05:56:17 05:59:01 16° 121° (ESE) 06:01:47 435.350 FM
DOVE 4 29 May 05:58:47 06:02:55 52° 100° (E) 06:07:12 437.250
STRAND 1 29 May 06:10:44 06:14:28 21° 67° (ENE) 06:18:15 437.568
XW-2D 29 May 06:14:56 06:18:36 41° 99° (E) 06:22:12 145.860 - 145.880
XW-2B 29 May 06:22:53 06:26:39 51° 100° (E) 06:30:22 145.730 - 145.750
NUDT-PHONESAT 29 May 06:23:19 06:26:51 38° 98° (E) 06:30:22 437.300
XW-2F 29 May 06:33:16 06:37:06 70° 100° (E) 06:40:53 145.980 - 146.000
KAITUO 1B 29 May 06:35:52 06:39:37 60° 100° (E) 06:43:19 145.475/437.950
XW-2C 29 May 06:36:37 06:40:29 83° 99° (E) 06:44:18 145.795 - 145.815
RS-15 29 May 06:38:06 06:43:10 13° 1° (N) 06:48:12 29.354- 29.394
CUTE 1.7 + AOD 2 29 May 06:45:40 06:47:06 11° 92° (E) 06:48:31 437.475
SO-50 29 May 07:08:36 07:13:02 56° 244° (WSW) 07:17:28 436.795
HO-68 29 May 07:14:23 07:20:55 36° 98° (E) 07:27:22 435.675
CUTE-I 29 May 07:16:18 07:21:31 56° 287° (WNW) 07:26:44 437.470
LilacSat-2 29 May 07:18:42 07:21:56 25° 288° (WNW) 07:25:07 437.200
SEEDS 29 May 07:27:26 07:30:48 23° 96° (E) 07:34:09 437.485
NO-84 29 May 07:31:57 07:36:17 56° 315° (NW) 07:40:33 435.350 FM
SRMSAT 29 May 07:35:52 07:39:38 17° 188° (S) 07:43:24 437.500
DOVE 4 29 May 07:39:03 07:40:12 11° 293° (WNW) 07:41:19 437.250
XW-2A 29 May 07:39:55 07:43:15 45° 99° (E) 07:46:34 145.665 - 145.685
STRAND 1 29 May 07:48:38 07:53:21 38° 261° (W) 07:58:06 437.568
XW-2D 29 May 07:51:13 07:52:20 11° 293° (WNW) 07:53:27 145.860 - 145.880
CUBEBUG 2 29 May 07:52:03 07:56:23 37° 98° (E) 08:00:45 437.445
UWE-3 29 May 07:56:28 08:00:15 25° 96° (E) 08:04:03 435.000/436.395/437.385
NUDT-PHONESAT 29 May 07:59:06 08:00:21 11° 292° (WNW) 08:01:36 437.300
M-CUBED/EXP-1 PRIME 29 May 08:01:53 08:06:06 71° 72° (ENE) 08:10:02 437.505
AAUSAT CUBESAT 2 29 May 08:17:31 08:21:27 42° 99° (E) 08:25:20 437.432
Oscar 11 29 May 08:17:44 08:20:13 15° 93° (E) 08:22:41 .
CUTE 1.7 + AOD 2 29 May 08:19:03 08:23:09 46° 286° (WNW) 08:27:11 437.475
TIGRISAT 29 May 08:36:16 08:36:47 10° 65° (ENE) 08:37:18 435.000
AO-73 29 May 08:46:34 08:50:57 45° 99° (E) 08:55:18 145.935
